GW5730 Weather Reports


Display with metric or nautical units.
time (UTC)temp
F
wind
direction
speed
MPH
gust
MPH
rain 1hr
in
rain 24hr
in
rain mn
in
humidity
%
barometer
mb
20260503211436 71 259 5.0 0.0 0.00 0.00 0.00 33 1009.8
20260503205936 71 224 7.0 0.0 0.00 0.00 0.00 33 1010.3
20260503204436 70 347 1.0 0.0 0.00 0.00 0.00 35 1010.3
20260503202936 70 339 4.0 0.0 0.00 0.00 0.00 36 1010.3
20260503201436 69 304 2.0 0.0 0.00 0.00 0.00 40 1010.3
20260503195936 71 259 7.0 0.0 0.00 0.00 0.00 39 1011.4
20260503194436 70 267 4.0 0.0 0.00 0.00 0.00 38 1011.4
20260503192936 71 307 6.0 0.0 0.00 0.00 0.00 39 1011.4
20260503191453 69 26 5.0 0.0 0.00 0.00 0.00 39 1011.4
20260503185936 69 244 7.0 0.0 0.00 0.00 0.00 41 1012.2
20260503184436 70 327 4.0 0.0 0.00 0.00 0.00 41 1012.2
20260503182936 67 290 2.0 0.0 0.00 0.00 0.00 44 1012.2
20260503181436 69 1 3.0 0.0 0.00 0.00 0.00 44 1012.2
20260503175936 67 21 6.0 0.0 0.00 0.00 0.00 49 1012.7
20260503174436 67 245 11.0 0.0 0.00 0.00 0.00 49 1012.7
20260503172936 66 24 4.0 0.0 0.00 0.00 0.00 54 1012.7
20260503171453 66 31 4.0 0.0 0.00 0.00 0.00 55 1012.7
20260503081436 46 253 0.0 0.0 0.00 0.00 0.00 95 1010.5
20260503072936 48 253 1.0 0.0 0.00 0.00 0.00 96 1009.8
20260503071453 48 333 0.0 0.0 0.00 0.00 0.00 96 1009.8
20260503054436 51 323 1.0 0.0 0.00 0.00 0.81 95 1009.8
20260503052936 52 252 1.0 0.0 0.00 0.00 0.81 95 1009.8
20260503051436 51 189 2.0 0.0 0.00 0.00 0.81 95 1009.8
20260503045936 51 257 2.0 0.0 0.00 0.00 0.81 95 1009.4
20260503044436 51 343 1.0 0.0 0.00 0.00 0.81 95 1009.4
20260503042936 51 326 0.0 0.0 0.00 0.00 0.81 94 1009.4
20260503041436 51 354 4.0 0.0 0.00 0.00 0.81 95 1009.4
20260503035936 51 330 0.0 0.0 0.00 0.00 0.81 95 1008.5
20260503034436 51 213 1.0 0.0 0.00 0.00 0.81 95 1008.5
20260503032936 51 315 0.0 0.0 0.00 0.00 0.81 95 1008.5
20260503031436 51 19 1.0 0.0 0.00 0.00 0.81 94 1008.5
20260503025936 50 256 1.0 0.0 0.00 0.00 0.81 94 1007.8
20260503024436 50 0 0.0 0.0 0.00 0.00 0.81 94 1007.8
20260503022936 50 0 0.0 0.0 0.00 0.00 0.81 94 1007.8
20260503021453 50 0 0.0 0.0 0.00 0.00 0.81 94 1007.8
20260503015953 50 0 0.0 0.0 0.00 0.00 0.81 94 1007.5
20260503014453 50 280 0.0 0.0 0.00 0.00 0.81 93 1007.5
20260503012936 50 3 1.0 0.0 0.00 0.00 0.81 93 1007.5
20260503011436 51 254 0.0 0.0 0.00 0.00 0.81 93 1007.5
20260503005953 51 9 0.0 0.0 0.00 0.00 0.81 93 1006.1
20260503004436 52 47 2.0 0.0 0.00 0.00 0.81 92 1006.1
20260503002936 52 354 1.0 0.0 0.00 0.00 0.81 91 1006.1
20260503001436 53 0 2.0 0.0 0.00 0.00 0.81 90 1006.1
20260502235936 54 85 1.0 0.0 0.00 0.00 0.81 90 1005.5
20260502234453 54 60 7.0 0.0 0.00 0.00 0.81 90 1005.5
20260502232953 55 50 10.0 0.0 0.00 0.00 0.81 90 1005.5
20260502231436 55 56 4.0 0.0 0.00 0.00 0.81 91 1005.5
20260502225936 55 58 3.0 0.0 0.00 0.00 0.81 91 1005.4
20260502224436 55 73 8.0 0.0 0.00 0.00 0.81 91 1005.4
20260502223010 55 64 10.0 0.0 0.00 0.00 0.81 91 1005.4
20260502221436 55 34 8.0 0.0 0.00 0.00 0.81 91 1005.4
20260502215936 55 80 7.0 0.0 0.00 0.00 0.81 92 1004.7
20260502214436 55 46 10.0 0.0 0.00 0.00 0.81 91 1004.7
20260502212936 55 45 9.0 0.0 0.00 0.00 0.81 92 1004.7